Location: Baia Mare
(47.6567°N, 23.5850°E)
Time: 03:28:38
(UTC+03:00)

ISS - Pass Details

Date: 24 September 2018
Orbit: 403 x 408 km, 51.6° (Epoch: 26 September)

Event Time Altitude Azimuth Distance (km) Brightness Sun altitude
Rises 21:18:03 0° 246° (WSW) 2,327 0.7 -20.3°
Reaches altitude 10° 21:20:08 10° 247° (WSW) 1,468 -0.4 -20.6°
Enters shadow 21:22:59 64° 253° (WSW) 456 -3.5 -21.0°
